[Iaude] MPEC D29: 2007 TC434 [a=128.40,e=0.69,i=26.5,H=7.2]

mpec at mpcdb1.cfa.harvard.edu mpec at mpcdb1.cfa.harvard.edu
Tue Feb 20 12:21:17 EST 2018


M.P.E.C. 2018-D29                                Issued 2018 Feb. 20, 17:17 UT
 
     The Minor Planet Electronic Circulars contain information on unusual
         minor planets and routine data on comets.  They are published
    on behalf of Division F of the International Astronomical Union by the
          Minor Planet Center, Smithsonian Astrophysical Observatory,
                          Cambridge, MA 02138, U.S.A.

             Prepared using the Tamkin Foundation Computer Network

                              MPC at CFA.HARVARD.EDU
            URL https://www.minorplanetcenter.net/    ISSN 1523-6714


                                  2007 TC434
 
Additional Observations:
     K07Th4C @C2013 08 08.55954 01 24 47.702+12 29 36.28         23.4 rqED029568
     K07Th4C @C2013 08 08.60322 01 24 47.616+12 29 36.38         23.4 rqED029568
     K07Th4C @C2013 08 08.60827 01 24 47.615+12 29 36.46         23.2 rqED029568
     K07Th4C @C2013 08 09.48745 01 24 46.369+12 29 40.98         22.6 rqED029568
     K07Th4C @C2013 08 09.57743 01 24 46.222+12 29 41.56         23.1 rqED029568
     K07Th4C @C2013 09 01.52958 01 23 50.354+12 29 17.71         23.3 rqED029568
     K07Th4C @C2013 09 01.56842 01 23 50.241+12 29 17.00         22.9 rqED029568
     K07Th4C @C2013 09 02.51684 01 23 47.065+12 29 10.87         23.3 rqED029568
     K07Th4C @C2013 09 02.56640 01 23 46.888+12 29 10.56         23.3 rqED029568
     K07Th4C @C2013 10 09.40471 01 21 08.632+12 20 28.81         23.2 rqED029568
     K07Th4C @C2013 10 30.38058 01 19 27.082+12 13 22.56         23.2 rqED029568
     K07Th4C @C2013 10 31.37152 01 19 22.460+12 13 02.35         23.3 rqED029568
     K07Th4C @C2013 10 31.37622 01 19 22.439+12 13 02.21         23.3 rqED029568
     K07Th4C @C2013 11 01.31737 01 19 18.073+12 12 42.87         23.2 rqED029568
     K07Th4C @C2013 11 01.35659 01 19 17.892+12 12 42.28         23.3 rqED029568
     K07Th4C @C2013 11 01.44974 01 19 17.449+12 12 40.25         23.3 rqED029568
     K07Th4C @C2013 11 27.37157 01 17 33.112+12 04 48.10         23.2 rqED029568
     K07Th4C @C2013 12 04.35483 01 17 12.182+12 03 12.97         22.8 rqED029568
     K07Th4C @C2014 07 25.52072 01 29 58.402+13 48 16.10         23.4 rqED029568
     K07Th4C @C2014 07 25.56220 01 29 58.392+13 48 16.77         23.3 rqED029568
     K07Th4C @C2014 07 25.60390 01 29 58.396+13 48 17.41         23.3 rqED029568
     K07Th4C @C2014 08 23.56029 01 29 20.931+13 51 48.71         23.4 rqED029568
     K07Th4C @C2014 08 23.60725 01 29 20.814+13 51 48.70         23.2 rqED029568
     K07Th4C @C2014 08 27.45264 01 29 10.487+13 51 43.20         23.2 rqED029568
     K07Th4C @C2014 08 27.54907 01 29 10.207+13 51 42.87         23.3 rqED029568
     K07Th4C @C2014 09 18.38325 01 27 52.163+13 48 57.42         23.1 rqED029568
     K07Th4C @C2014 09 18.38833 01 27 52.140+13 48 57.27         23.2 rqED029568
     K07Th4C @C2014 09 18.42795 01 27 51.971+13 48 56.79         23.1 rqED029568
     K07Th4C @C2014 09 23.46889 01 27 30.148+13 47 49.99         23.2 rqED029568
     K07Th4C @C2014 10 22.42878 01 25 11.644+13 39 09.42         23.2 rqED029568
     K07Th4C @C2014 10 22.46820 01 25 11.451+13 39 08.62         23.3 rqED029568
     K07Th4C @C2014 10 22.50765 01 25 11.257+13 39 07.80         23.2 rqED029568
     K07Th4C @C2014 10 23.42588 01 25 06.777+13 38 48.82         23.2 rqED029568
     K07Th4C @C2014 10 25.43103 01 24 57.030+13 38 07.61         23.0 rqED029568
     K07Th4C @C2014 11 19.23833 01 23 06.417+13 29 50.33         23.2 rqED029568
     K07Th4C @C2014 11 19.37128 01 23 05.887+13 29 47.92         23.1 rqED029568
     K07Th4C @C2014 11 21.21867 01 22 58.799+13 29 14.42         22.9 rqED029568
     K07Th4C @C2015 02 19.22673 01 23 07.035+13 32 51.66         23.2 rqED029568
     K07Th4C @C2015 02 19.24767 01 23 07.122+13 32 52.30         23.1 rqED029568
     K07Th4C @C2017 01 31.21827 01 31 55.740+16 04 06.84         23.2 wqED029568
     K07Th4C @C2017 08 25.58266 01 44 28.498+17 50 03.37         23.5 wqED029568
     K07Th4C @C2017 08 30.60434 01 44 15.351+17 50 15.76         23.6 wqED029568
     K07Th4C @C2017 08 31.56690 01 44 12.610+17 50 16.61         23.5 wqED029568
 
Observer details:
568 Mauna Kea.  Observers M. T. Bannister, J. J. Kavelaars, B. J. Gladman,
    J.-M. Petit, T. Burdullis.  Measurers S. D. J. Gwyn, Y.-T. Chen,
    M. Alexandersen.  3.6-m Canada-France-Hawaii Telescope + CCD.
 
Orbital elements:
2007 TC434
Epoch 2018 Mar. 23.0 TT = JDT 2458200.5                 MPC
M   3.32437              (2000.0)            P               Q
n   0.00067743     Peri.  351.01074     +0.98732185     -0.09771795
a 128.3980262      Node    16.27517     +0.15856469     +0.64325292
e   0.6917668      Incl.   26.50909     -0.00726650     +0.75939244
P  1450            H    7.2           G   0.15           U   1
Residuals in seconds of arc
071015 304  0.2+  0.1+    131031 568  0.0   0.0     140923 568  0.0   0.0
071015 304  0.0   0.2+    131031 568  0.1+  0.0     141022 568  0.0   0.1+
071015 304  0.0   0.0     131101 568  0.0   0.1-    141022 568  0.0   0.1+
071016 304  0.7-  0.3+    131101 568  0.1+  0.1+    141022 568  0.1+  0.1+
071016 304  0.1+  0.2-    131101 568  0.0   0.0     141023 568  0.0   0.1-
071016 304  0.0   0.1-    131127 568  0.1+  0.0     141025 568  0.1-  0.0
130808 568  0.1+  0.0     131204 568  0.0   0.1-    141119 568  0.1+  0.0
130808 568  0.2-  0.1-    140725 568  0.0   0.1-    141119 568  0.1+  0.0
130808 568  0.1-  0.1-    140725 568  0.1-  0.0     141121 568  0.0   0.0
130809 568  0.2+  0.1-    140725 568  0.0   0.0     150219 568  0.1-  0.0
130809 568  0.1+  0.0     140823 568  0.0   0.0     150219 568  0.1-  0.1+
130901 568  0.0   0.1-    140823 568  0.1+  0.0     170131 568  0.1-  0.1+
130901 568  0.3+  0.5-    140827 568  0.0   0.1+    170825 568  0.1-  0.1+
130902 568  0.1+  0.0     140827 568  0.0   0.0     170830 568  0.2-  0.1+
130902 568  0.0   0.0     140918 568  0.0   0.1+    170831 568  0.2-  0.1+
131009 568  0.0   0.1-    140918 568  0.0   0.0
131030 568  0.0   0.1-    140918 568  0.0   0.0

Ephemeris:
2007 TC434               a,e,i = 128.40, 0.69, 27                q = 39.577
Date    TT    R. A. (2000) Decl.     Delta      r     Elong.  Phase     V
2018 01 21    01 36 34.7 +17 20 13  41.0905 41.0690    88.1     1.4    23.5
...
2018 02 05    01 37 04.3 +17 22 16  41.3544 41.0780    73.1     1.3    23.5
...
2018 02 13    01 37 28.5 +17 24 14  41.4883 41.0828    65.1     1.2    23.5
...
2018 02 19    01 37 50.3 +17 26 06  41.5836 41.0865    59.2     1.2    23.5
2018 02 20    01 37 54.2 +17 26 26  41.5990 41.0871    58.2     1.2    23.5
2018 02 21    01 37 58.2 +17 26 47  41.6142 41.0877    57.3     1.2    23.5
...
2018 02 27    01 38 23.7 +17 29 04  41.7020 41.0913    51.4     1.1    23.5
...
2018 03 07    01 39 01.6 +17 32 35  41.8086 41.0961    43.6     1.0    23.5
...
2018 03 22    01 40 22.5 +17 40 27  41.9710 41.1052    29.3     0.7    23.5

A. U. Tomatic                (C) Copyright 2018 MPC           M.P.E.C. 2018-D29



More information about the Iaude mailing list